Year,Month,Day,Hour,Minute,Value (Times are PST for temperature in C)
2009,07,10,00,00,14.10
2009,07,10,00,01,14.00
2009,07,10,00,02,14.00
2009,07,10,00,03,13.90
2009,07,10,00,04,13.90
2009,07,10,00,05,13.90
2009,07,10,00,06,13.90
2009,07,10,00,07,13.90
2009,07,10,00,08,13.90
2009,07,10,00,09,13.80
2009,07,10,00,10,13.80
2009,07,10,00,11,13.80
2009,07,10,00,12,13.70
2009,07,10,00,13,13.70
2009,07,10,00,14,13.70
2009,07,10,00,15,13.60
2009,07,10,00,16,13.60
2009,07,10,00,17,13.60
2009,07,10,00,18,13.50
2009,07,10,00,19,13.50
2009,07,10,00,20,13.40
2009,07,10,00,21,13.40
2009,07,10,00,22,13.30
2009,07,10,00,23,13.30
2009,07,10,00,24,13.30
2009,07,10,00,25,13.30
2009,07,10,00,26,13.20
2009,07,10,00,27,13.20
2009,07,10,00,28,13.20
2009,07,10,00,29,13.20
2009,07,10,00,30,13.20
2009,07,10,00,31,13.10
2009,07,10,00,32,13.10
2009,07,10,00,33,13.10
2009,07,10,00,34,13.10
2009,07,10,00,35,13.10
2009,07,10,00,36,13.10
2009,07,10,00,37,13.00
2009,07,10,00,38,13.00
2009,07,10,00,39,13.00
2009,07,10,00,40,13.00
2009,07,10,00,41,12.90
2009,07,10,00,42,12.90
2009,07,10,00,43,12.90
2009,07,10,00,44,12.90
2009,07,10,00,45,12.80
2009,07,10,00,46,12.80
2009,07,10,00,47,12.80
2009,07,10,00,48,12.80
2009,07,10,00,49,12.80
2009,07,10,00,50,12.80
2009,07,10,00,51,12.80
2009,07,10,00,52,12.70
2009,07,10,00,53,12.70
2009,07,10,00,54,12.70
2009,07,10,00,55,12.70
2009,07,10,00,56,12.70
2009,07,10,00,57,12.70
2009,07,10,00,58,12.70
2009,07,10,00,59,12.60
2009,07,10,01,00,12.60
2009,07,10,01,01,12.60
2009,07,10,01,02,12.60
2009,07,10,01,03,12.50
2009,07,10,01,04,12.50
2009,07,10,01,05,12.50
2009,07,10,01,06,12.40
2009,07,10,01,07,12.40
2009,07,10,01,08,12.40
2009,07,10,01,09,12.40
2009,07,10,01,10,12.40
2009,07,10,01,11,12.40
2009,07,10,01,12,12.30
2009,07,10,01,13,12.30
2009,07,10,01,14,12.30
2009,07,10,01,15,12.30
2009,07,10,01,16,12.30
2009,07,10,01,17,12.30
2009,07,10,01,18,12.20
2009,07,10,01,19,12.20
2009,07,10,01,20,12.20
2009,07,10,01,21,12.20
2009,07,10,01,22,12.20
2009,07,10,01,23,12.20
2009,07,10,01,24,12.20
2009,07,10,01,25,12.20
2009,07,10,01,26,12.20
2009,07,10,01,27,12.20
2009,07,10,01,28,12.20
2009,07,10,01,29,12.20
2009,07,10,01,30,12.20
2009,07,10,01,31,12.10
2009,07,10,01,32,12.10
2009,07,10,01,33,12.10
2009,07,10,01,34,12.10
2009,07,10,01,35,12.10
2009,07,10,01,36,12.10
2009,07,10,01,37,12.10
2009,07,10,01,38,12.10
2009,07,10,01,39,12.10
2009,07,10,01,40,12.00
2009,07,10,01,41,12.00
2009,07,10,01,42,12.00
2009,07,10,01,43,12.00
2009,07,10,01,44,12.00
2009,07,10,01,45,12.00
2009,07,10,01,46,12.00
2009,07,10,01,47,12.00
2009,07,10,01,48,12.00
2009,07,10,01,49,12.00
2009,07,10,01,50,11.90
2009,07,10,01,51,11.90
2009,07,10,01,52,11.90
2009,07,10,01,53,11.90
2009,07,10,01,54,11.90
2009,07,10,01,55,11.90
2009,07,10,01,56,11.90
2009,07,10,01,57,11.90
2009,07,10,01,58,11.90
2009,07,10,01,59,11.90
2009,07,10,02,00,11.90
2009,07,10,02,01,11.90
2009,07,10,02,02,11.90
2009,07,10,02,03,11.90
2009,07,10,02,04,11.90
2009,07,10,02,05,11.80
2009,07,10,02,06,11.80
2009,07,10,02,07,11.80
2009,07,10,02,08,11.80
2009,07,10,02,09,11.80
2009,07,10,02,10,11.80
2009,07,10,02,11,11.80
2009,07,10,02,12,11.70
2009,07,10,02,13,11.70
2009,07,10,02,14,11.70
2009,07,10,02,15,11.70
2009,07,10,02,16,11.70
2009,07,10,02,17,11.70
2009,07,10,02,18,11.70
2009,07,10,02,19,11.70
2009,07,10,02,20,11.70
2009,07,10,02,21,11.70
2009,07,10,02,22,11.70
2009,07,10,02,23,11.70
2009,07,10,02,24,11.70
2009,07,10,02,25,11.60
2009,07,10,02,26,11.60
2009,07,10,02,27,11.60
2009,07,10,02,28,11.60
2009,07,10,02,29,11.60
2009,07,10,02,30,11.60
2009,07,10,02,31,11.60
2009,07,10,02,32,11.60
2009,07,10,02,33,11.60
2009,07,10,02,34,11.50
2009,07,10,02,35,11.50
2009,07,10,02,36,11.50
2009,07,10,02,37,11.50
2009,07,10,02,38,11.50
2009,07,10,02,39,11.50
2009,07,10,02,40,11.50
2009,07,10,02,41,11.50
2009,07,10,02,42,11.50
2009,07,10,02,43,11.40
2009,07,10,02,44,11.40
2009,07,10,02,45,11.40
2009,07,10,02,46,11.40
2009,07,10,02,47,11.40
2009,07,10,02,48,11.40
2009,07,10,02,49,11.40
2009,07,10,02,50,11.40
2009,07,10,02,51,11.40
2009,07,10,02,52,11.40
2009,07,10,02,53,11.30
2009,07,10,02,54,11.30
2009,07,10,02,55,11.30
2009,07,10,02,56,11.30
2009,07,10,02,57,11.30
2009,07,10,02,58,11.30
2009,07,10,02,59,11.30
2009,07,10,03,00,11.30
2009,07,10,03,01,11.30
2009,07,10,03,02,11.30
2009,07,10,03,03,11.30
2009,07,10,03,04,11.30
2009,07,10,03,05,11.30
2009,07,10,03,06,11.30
2009,07,10,03,07,11.30
2009,07,10,03,08,11.30
2009,07,10,03,09,11.30
2009,07,10,03,10,11.30
2009,07,10,03,11,11.20
2009,07,10,03,12,11.30
2009,07,10,03,13,11.20
2009,07,10,03,14,11.20
2009,07,10,03,15,11.20
2009,07,10,03,16,11.20
2009,07,10,03,17,11.20
2009,07,10,03,18,11.20
2009,07,10,03,19,11.20
2009,07,10,03,20,11.20
2009,07,10,03,21,11.20
2009,07,10,03,22,11.20
2009,07,10,03,23,11.20
2009,07,10,03,24,11.10
2009,07,10,03,25,11.10
2009,07,10,03,26,11.10
2009,07,10,03,27,11.10
2009,07,10,03,28,11.10
2009,07,10,03,29,11.10
2009,07,10,03,30,11.10
2009,07,10,03,31,11.10
2009,07,10,03,32,11.10
2009,07,10,03,33,11.10
2009,07,10,03,34,11.10
2009,07,10,03,35,11.10
2009,07,10,03,36,11.10
2009,07,10,03,37,11.10
2009,07,10,03,38,11.10
2009,07,10,03,39,11.10
2009,07,10,03,40,11.10
2009,07,10,03,41,11.10
2009,07,10,03,42,11.10
2009,07,10,03,43,11.10
2009,07,10,03,44,11.00
2009,07,10,03,45,11.00
2009,07,10,03,46,11.00
2009,07,10,03,47,11.00
2009,07,10,03,48,11.00
2009,07,10,03,49,11.00
2009,07,10,03,50,11.00
2009,07,10,03,51,11.00
2009,07,10,03,52,10.90
2009,07,10,03,53,10.90
2009,07,10,03,54,10.90
2009,07,10,03,55,10.90
2009,07,10,03,56,10.90
2009,07,10,03,57,10.80
2009,07,10,03,58,10.80
2009,07,10,03,59,10.80
2009,07,10,04,00,10.80
2009,07,10,04,01,10.80
2009,07,10,04,02,10.80
2009,07,10,04,03,10.80
2009,07,10,04,04,10.80
2009,07,10,04,05,10.80
2009,07,10,04,06,10.80
2009,07,10,04,07,10.80
2009,07,10,04,08,10.80
2009,07,10,04,09,10.70
2009,07,10,04,10,10.70
2009,07,10,04,11,10.70
2009,07,10,04,12,10.70
2009,07,10,04,13,10.70
2009,07,10,04,14,10.70
2009,07,10,04,15,10.70
2009,07,10,04,16,10.70
2009,07,10,04,17,10.70
2009,07,10,04,18,10.70
2009,07,10,04,19,10.70
2009,07,10,04,20,10.60
2009,07,10,04,21,10.60
2009,07,10,04,22,10.60
2009,07,10,04,23,10.60
2009,07,10,04,24,10.60
2009,07,10,04,25,10.60
2009,07,10,04,26,10.60
2009,07,10,04,27,10.50
2009,07,10,04,28,10.50
2009,07,10,04,29,10.50
2009,07,10,04,30,10.50
2009,07,10,04,31,10.50
2009,07,10,04,32,10.50
2009,07,10,04,33,10.50
2009,07,10,04,34,10.50
2009,07,10,04,35,10.50
2009,07,10,04,36,10.50
2009,07,10,04,37,10.50
2009,07,10,04,38,10.50
2009,07,10,04,39,10.50
2009,07,10,04,40,10.50
2009,07,10,04,41,10.50
2009,07,10,04,42,10.50
2009,07,10,04,43,10.50
2009,07,10,04,44,10.50
2009,07,10,04,45,10.50
2009,07,10,04,46,10.40
2009,07,10,04,47,10.40
2009,07,10,04,48,10.40
2009,07,10,04,49,10.40
2009,07,10,04,50,10.40
2009,07,10,04,51,10.40
2009,07,10,04,52,10.40
2009,07,10,04,53,10.40
2009,07,10,04,54,10.30
2009,07,10,04,55,10.30
2009,07,10,04,56,10.30
2009,07,10,04,57,10.30
2009,07,10,04,58,10.30
2009,07,10,04,59,10.30
2009,07,10,05,00,10.30
2009,07,10,05,01,10.30
2009,07,10,05,02,10.30
2009,07,10,05,03,10.30
2009,07,10,05,04,10.30
2009,07,10,05,05,10.30
2009,07,10,05,06,10.30
2009,07,10,05,07,10.30
2009,07,10,05,08,10.30
2009,07,10,05,09,10.30
2009,07,10,05,10,10.20
2009,07,10,05,11,10.20
2009,07,10,05,12,10.20
2009,07,10,05,13,10.20
2009,07,10,05,14,10.20
2009,07,10,05,15,10.20
2009,07,10,05,16,10.20
2009,07,10,05,17,10.20
2009,07,10,05,18,10.20
2009,07,10,05,19,10.20
2009,07,10,05,20,10.20
2009,07,10,05,21,10.20
2009,07,10,05,22,10.20
2009,07,10,05,23,10.20
2009,07,10,05,24,10.20
2009,07,10,05,25,10.20
2009,07,10,05,26,10.20
2009,07,10,05,27,10.20
2009,07,10,05,28,10.20
2009,07,10,05,29,10.20
2009,07,10,05,30,10.10
2009,07,10,05,31,10.10
2009,07,10,05,32,10.10
2009,07,10,05,33,10.10
2009,07,10,05,34,10.10
2009,07,10,05,35,10.10
2009,07,10,05,36,10.10
2009,07,10,05,37,10.10
2009,07,10,05,38,10.10
2009,07,10,05,39,10.10
2009,07,10,05,40,10.10
2009,07,10,05,41,10.10
2009,07,10,05,42,10.10
2009,07,10,05,43,10.10
2009,07,10,05,44,10.00
2009,07,10,05,45,10.00
2009,07,10,05,46,10.00
2009,07,10,05,47,10.00
2009,07,10,05,48,10.00
2009,07,10,05,49,10.00
2009,07,10,05,50,10.00
2009,07,10,05,51,9.90
2009,07,10,05,52,9.90
2009,07,10,05,53,10.00
2009,07,10,05,54,9.90
2009,07,10,05,55,9.90
2009,07,10,05,56,9.90
2009,07,10,05,57,9.90
2009,07,10,05,58,9.90
2009,07,10,05,59,9.90
2009,07,10,06,00,9.90
2009,07,10,06,01,9.90
2009,07,10,06,02,10.00
2009,07,10,06,03,10.00
2009,07,10,06,04,10.00
2009,07,10,06,05,10.10
2009,07,10,06,06,10.10
2009,07,10,06,07,10.10
2009,07,10,06,08,10.10
2009,07,10,06,09,10.20
2009,07,10,06,10,10.20
2009,07,10,06,11,10.30
2009,07,10,06,12,10.30
2009,07,10,06,13,10.40
2009,07,10,06,14,10.40
2009,07,10,06,15,10.40
2009,07,10,06,16,10.50
2009,07,10,06,17,10.50
2009,07,10,06,18,10.60
2009,07,10,06,19,10.60
2009,07,10,06,20,10.70
2009,07,10,06,21,10.70
2009,07,10,06,22,10.70
2009,07,10,06,23,10.80
2009,07,10,06,24,10.80
2009,07,10,06,25,10.80
2009,07,10,06,26,10.90
2009,07,10,06,27,10.90
2009,07,10,06,28,11.00
2009,07,10,06,29,11.00
2009,07,10,06,30,11.10
2009,07,10,06,31,11.20
2009,07,10,06,32,11.30
2009,07,10,06,33,11.30
2009,07,10,06,34,11.40
2009,07,10,06,35,11.40
2009,07,10,06,36,11.50
2009,07,10,06,37,11.50
2009,07,10,06,38,11.60
2009,07,10,06,39,11.60
2009,07,10,06,40,11.70
2009,07,10,06,41,11.70
2009,07,10,06,42,11.80
2009,07,10,06,43,11.90
2009,07,10,06,44,12.00
2009,07,10,06,45,12.10
2009,07,10,06,46,12.20
2009,07,10,06,47,12.30
2009,07,10,06,48,12.40
2009,07,10,06,49,12.50
2009,07,10,06,50,12.60
2009,07,10,06,51,12.70
2009,07,10,06,52,12.80
2009,07,10,06,53,12.90
2009,07,10,06,54,12.90
2009,07,10,06,55,13.00
2009,07,10,06,56,13.10
2009,07,10,06,57,13.10
2009,07,10,06,58,13.20
2009,07,10,06,59,13.20
2009,07,10,07,00,13.30
2009,07,10,07,01,13.30
2009,07,10,07,02,13.40
2009,07,10,07,03,13.40
2009,07,10,07,04,13.50
2009,07,10,07,05,13.60
2009,07,10,07,06,13.60
2009,07,10,07,07,13.70
2009,07,10,07,08,13.80
2009,07,10,07,09,13.80
2009,07,10,07,10,13.90
2009,07,10,07,11,14.00
2009,07,10,07,12,14.00
2009,07,10,07,13,14.10
2009,07,10,07,14,14.20
2009,07,10,07,15,14.30
2009,07,10,07,16,14.40
2009,07,10,07,17,14.50
2009,07,10,07,18,14.60
2009,07,10,07,19,14.70
2009,07,10,07,20,14.80
2009,07,10,07,21,14.90
2009,07,10,07,22,15.00
2009,07,10,07,23,15.10
2009,07,10,07,24,15.10
2009,07,10,07,25,15.20
2009,07,10,07,26,15.20
2009,07,10,07,27,15.20
2009,07,10,07,28,15.20
2009,07,10,07,29,15.20
2009,07,10,07,30,15.20
2009,07,10,07,31,15.20
2009,07,10,07,32,15.20
2009,07,10,07,33,15.20
2009,07,10,07,34,15.20
2009,07,10,07,35,15.20
2009,07,10,07,36,15.20
2009,07,10,07,37,15.20
2009,07,10,07,38,15.30
2009,07,10,07,39,15.30
2009,07,10,07,40,15.40
2009,07,10,07,41,15.50
2009,07,10,07,42,15.60
2009,07,10,07,43,15.70
2009,07,10,07,44,15.80
2009,07,10,07,45,15.80
2009,07,10,07,46,15.90
2009,07,10,07,47,16.00
2009,07,10,07,48,16.10
2009,07,10,07,49,16.20
2009,07,10,07,50,16.30
2009,07,10,07,51,16.40
2009,07,10,07,52,16.50
2009,07,10,07,53,16.60
2009,07,10,07,54,16.60
2009,07,10,07,55,16.70
2009,07,10,07,56,16.90
2009,07,10,07,57,17.00
2009,07,10,07,58,17.10
2009,07,10,07,59,17.20
2009,07,10,08,00,17.30
2009,07,10,08,01,17.40
2009,07,10,08,02,17.40
2009,07,10,08,03,17.40
2009,07,10,08,04,17.40
2009,07,10,08,05,17.40
2009,07,10,08,06,17.40
2009,07,10,08,07,17.40
2009,07,10,08,08,17.40
2009,07,10,08,09,17.40
2009,07,10,08,10,17.40
2009,07,10,08,11,17.40
2009,07,10,08,12,17.50
2009,07,10,08,13,17.60
2009,07,10,08,14,17.60
2009,07,10,08,15,17.60
2009,07,10,08,16,17.70
2009,07,10,08,17,17.80
2009,07,10,08,18,17.80
2009,07,10,08,19,17.90
2009,07,10,08,20,18.00
2009,07,10,08,21,18.00
2009,07,10,08,22,18.10
2009,07,10,08,23,18.20
2009,07,10,08,24,18.30
2009,07,10,08,25,18.40
2009,07,10,08,26,18.50
2009,07,10,08,27,18.50
2009,07,10,08,28,18.50
2009,07,10,08,29,18.50
2009,07,10,08,30,18.40
2009,07,10,08,31,18.40
2009,07,10,08,32,18.40
2009,07,10,08,33,18.40
2009,07,10,08,34,18.40
2009,07,10,08,35,18.40
2009,07,10,08,36,18.40
2009,07,10,08,37,18.40
2009,07,10,08,38,18.40
2009,07,10,08,39,18.40
2009,07,10,08,40,18.50
2009,07,10,08,41,18.50
2009,07,10,08,42,18.50
2009,07,10,08,43,18.50
2009,07,10,08,44,18.50
2009,07,10,08,45,18.50
2009,07,10,08,46,18.50
2009,07,10,08,47,18.50
2009,07,10,08,48,18.60
2009,07,10,08,49,18.70
2009,07,10,08,50,18.70
2009,07,10,08,51,18.80
2009,07,10,08,52,18.80
2009,07,10,08,53,18.90
2009,07,10,08,54,18.90
2009,07,10,08,55,18.90
2009,07,10,08,56,18.90
2009,07,10,08,57,18.80
2009,07,10,08,58,18.80
2009,07,10,08,59,18.80
2009,07,10,09,00,18.90
2009,07,10,09,01,19.00
2009,07,10,09,02,19.20
2009,07,10,09,03,19.20
2009,07,10,09,04,19.20
2009,07,10,09,05,19.20
2009,07,10,09,06,19.20
2009,07,10,09,07,19.30
2009,07,10,09,08,19.40
2009,07,10,09,09,19.40
2009,07,10,09,10,19.40
2009,07,10,09,11,19.40
2009,07,10,09,12,19.40
2009,07,10,09,13,19.40
2009,07,10,09,14,19.40
2009,07,10,09,15,19.30
2009,07,10,09,16,19.30
2009,07,10,09,17,19.30
2009,07,10,09,18,19.40
2009,07,10,09,19,19.40
2009,07,10,09,20,19.40
2009,07,10,09,21,19.40
2009,07,10,09,22,19.40
2009,07,10,09,23,19.40
2009,07,10,09,24,19.50
2009,07,10,09,25,19.60
2009,07,10,09,26,19.60
2009,07,10,09,27,19.60
2009,07,10,09,28,19.50
2009,07,10,09,29,19.60
2009,07,10,09,30,19.60
2009,07,10,09,31,19.60
2009,07,10,09,32,19.60
2009,07,10,09,33,19.60
2009,07,10,09,34,19.70
2009,07,10,09,35,19.70
2009,07,10,09,36,19.70
2009,07,10,09,37,19.70
2009,07,10,09,38,19.70
2009,07,10,09,39,19.60
2009,07,10,09,40,19.60
2009,07,10,09,41,19.60
2009,07,10,09,42,19.60
2009,07,10,09,43,19.60
2009,07,10,09,44,19.60
2009,07,10,09,45,19.60
2009,07,10,09,46,19.70
2009,07,10,09,47,19.70
2009,07,10,09,48,19.80
2009,07,10,09,49,19.80
2009,07,10,09,50,19.80
2009,07,10,09,51,19.80
2009,07,10,09,52,19.80
2009,07,10,09,53,19.80
2009,07,10,09,54,19.80
2009,07,10,09,55,19.80
2009,07,10,09,56,19.70
2009,07,10,09,57,19.70
2009,07,10,09,58,19.80
2009,07,10,09,59,19.80
2009,07,10,10,00,19.80
2009,07,10,10,01,19.70
2009,07,10,10,02,19.70
2009,07,10,10,03,19.70
2009,07,10,10,04,19.80
2009,07,10,10,05,19.90
2009,07,10,10,06,19.80
2009,07,10,10,07,19.80
2009,07,10,10,08,19.80
2009,07,10,10,09,19.80
2009,07,10,10,10,19.80
2009,07,10,10,11,19.80
2009,07,10,10,12,19.80
2009,07,10,10,13,19.80
2009,07,10,10,14,19.80
2009,07,10,10,15,19.80
2009,07,10,10,16,19.90
2009,07,10,10,17,19.90
2009,07,10,10,18,19.90
2009,07,10,10,19,19.90
2009,07,10,10,20,20.00
2009,07,10,10,21,20.10
2009,07,10,10,22,20.10
2009,07,10,10,23,20.20
2009,07,10,10,24,20.30
2009,07,10,10,25,20.30
2009,07,10,10,26,20.30
2009,07,10,10,27,20.20
2009,07,10,10,28,20.20
2009,07,10,10,29,20.20
2009,07,10,10,30,20.20
2009,07,10,10,31,20.20
2009,07,10,10,32,20.20
2009,07,10,10,33,20.30
2009,07,10,10,34,20.30
2009,07,10,10,35,20.30
2009,07,10,10,36,20.40
2009,07,10,10,37,20.40
2009,07,10,10,38,20.40
2009,07,10,10,39,20.30
2009,07,10,10,40,20.20
2009,07,10,10,41,20.20
2009,07,10,10,42,20.20
2009,07,10,10,43,20.10
2009,07,10,10,44,20.10
2009,07,10,10,45,20.00
2009,07,10,10,46,20.00
2009,07,10,10,47,20.00
2009,07,10,10,48,20.00
2009,07,10,10,49,20.10
2009,07,10,10,50,20.10
2009,07,10,10,51,20.10
2009,07,10,10,52,20.20
2009,07,10,10,53,20.20
2009,07,10,10,54,20.20
2009,07,10,10,55,20.30
2009,07,10,10,56,20.30
2009,07,10,10,57,20.40
2009,07,10,10,58,20.50
2009,07,10,10,59,20.60
2009,07,10,11,00,20.70
2009,07,10,11,01,20.70
2009,07,10,11,02,20.70
2009,07,10,11,03,20.70
2009,07,10,11,04,20.70
2009,07,10,11,05,20.60
2009,07,10,11,06,20.60
2009,07,10,11,07,20.70
2009,07,10,11,08,20.60
2009,07,10,11,09,20.60
2009,07,10,11,10,20.50
2009,07,10,11,11,20.50
2009,07,10,11,12,20.60
2009,07,10,11,13,20.70
2009,07,10,11,14,20.60
2009,07,10,11,15,20.60
2009,07,10,11,16,20.70
2009,07,10,11,17,20.60
2009,07,10,11,18,20.60
2009,07,10,11,19,20.60
2009,07,10,11,20,20.60
2009,07,10,11,21,20.60
2009,07,10,11,22,20.70
2009,07,10,11,23,20.70
2009,07,10,11,24,20.70
2009,07,10,11,25,20.80
2009,07,10,11,26,20.90
2009,07,10,11,27,21.00
2009,07,10,11,28,21.10
2009,07,10,11,29,21.10
2009,07,10,11,30,21.20
2009,07,10,11,31,21.30
2009,07,10,11,32,21.30
2009,07,10,11,33,21.10
2009,07,10,11,34,21.00
2009,07,10,11,35,20.90
2009,07,10,11,36,20.90
2009,07,10,11,37,20.90
2009,07,10,11,38,20.90
2009,07,10,11,39,20.90
2009,07,10,11,40,20.80
2009,07,10,11,41,20.70
2009,07,10,11,42,20.60
2009,07,10,11,43,20.60
2009,07,10,11,44,20.60
2009,07,10,11,45,20.60
2009,07,10,11,46,20.70
2009,07,10,11,47,21.00
2009,07,10,11,48,21.10
2009,07,10,11,49,21.20
2009,07,10,11,50,21.40
2009,07,10,11,51,21.50
2009,07,10,11,52,21.60
2009,07,10,11,53,21.50
2009,07,10,11,54,21.50
2009,07,10,11,55,21.50
2009,07,10,11,56,21.60
2009,07,10,11,57,21.60
2009,07,10,11,58,21.60
2009,07,10,11,59,21.60
2009,07,10,12,00,21.50
2009,07,10,12,01,21.40
2009,07,10,12,02,21.40
2009,07,10,12,03,21.40
2009,07,10,12,04,21.50
2009,07,10,12,05,21.60
2009,07,10,12,06,21.60
2009,07,10,12,07,21.60
2009,07,10,12,08,21.60
2009,07,10,12,09,21.60
2009,07,10,12,10,21.50
2009,07,10,12,11,21.40
2009,07,10,12,12,21.30
2009,07,10,12,13,21.40
2009,07,10,12,14,21.50
2009,07,10,12,15,21.50
2009,07,10,12,16,21.40
2009,07,10,12,17,21.30
2009,07,10,12,18,21.30
2009,07,10,12,19,21.30
2009,07,10,12,20,21.50
2009,07,10,12,21,21.60
2009,07,10,12,22,21.60
2009,07,10,12,23,21.70
2009,07,10,12,24,21.60
2009,07,10,12,25,21.60
2009,07,10,12,26,21.70
2009,07,10,12,27,21.70
2009,07,10,12,28,21.80
2009,07,10,12,29,21.90
2009,07,10,12,30,21.90
2009,07,10,12,31,22.00
2009,07,10,12,32,22.10
2009,07,10,12,33,22.10
2009,07,10,12,34,22.10
2009,07,10,12,35,22.00
2009,07,10,12,36,21.90
2009,07,10,12,37,21.80
2009,07,10,12,38,21.80
2009,07,10,12,39,21.70
2009,07,10,12,40,21.60
2009,07,10,12,41,21.50
2009,07,10,12,42,21.40
2009,07,10,12,43,21.50
2009,07,10,12,44,21.60
2009,07,10,12,45,21.70
2009,07,10,12,46,21.80
2009,07,10,12,47,21.80
2009,07,10,12,48,21.80
2009,07,10,12,49,21.80
2009,07,10,12,50,21.80
2009,07,10,12,51,21.90
2009,07,10,12,52,21.90
2009,07,10,12,53,22.00
2009,07,10,12,54,22.00
2009,07,10,12,55,21.90
2009,07,10,12,56,21.80
2009,07,10,12,57,21.80
2009,07,10,12,58,21.80
2009,07,10,12,59,21.80
2009,07,10,13,00,21.80
2009,07,10,13,01,21.70
2009,07,10,13,02,21.70
2009,07,10,13,03,21.70
2009,07,10,13,04,21.80
2009,07,10,13,05,21.90
2009,07,10,13,06,22.10
2009,07,10,13,07,22.20
2009,07,10,13,08,22.30
2009,07,10,13,09,22.30
2009,07,10,13,10,22.20
2009,07,10,13,11,22.00
2009,07,10,13,12,21.80
2009,07,10,13,13,21.60
2009,07,10,13,14,21.40
2009,07,10,13,15,21.30
2009,07,10,13,16,21.30
2009,07,10,13,17,21.20
2009,07,10,13,18,21.10
2009,07,10,13,19,21.00
2009,07,10,13,20,21.00
2009,07,10,13,21,21.00
2009,07,10,13,22,21.10
2009,07,10,13,23,21.10
2009,07,10,13,24,21.10
2009,07,10,13,25,21.10
2009,07,10,13,26,21.10
2009,07,10,13,27,21.30
2009,07,10,13,28,21.30
2009,07,10,13,29,21.30
2009,07,10,13,30,21.30
2009,07,10,13,31,21.30
2009,07,10,13,32,21.30
2009,07,10,13,33,21.40
2009,07,10,13,34,21.40
2009,07,10,13,35,21.30
2009,07,10,13,36,21.20
2009,07,10,13,37,21.10
2009,07,10,13,38,21.00
2009,07,10,13,39,21.00
2009,07,10,13,40,21.00
2009,07,10,13,41,21.00
2009,07,10,13,42,20.90
2009,07,10,13,43,20.90
2009,07,10,13,44,21.00
2009,07,10,13,45,21.10
2009,07,10,13,46,21.20
2009,07,10,13,47,21.40
2009,07,10,13,48,21.50
2009,07,10,13,49,21.50
2009,07,10,13,50,21.60
2009,07,10,13,51,21.70
2009,07,10,13,52,21.70
2009,07,10,13,53,21.70
2009,07,10,13,54,21.70
2009,07,10,13,55,21.70
2009,07,10,13,56,21.60
2009,07,10,13,57,21.60
2009,07,10,13,58,21.50
2009,07,10,13,59,21.50
2009,07,10,14,00,21.50
2009,07,10,14,01,21.50
2009,07,10,14,02,21.60
2009,07,10,14,03,21.70
2009,07,10,14,04,21.80
2009,07,10,14,05,21.80
2009,07,10,14,06,21.80
2009,07,10,14,07,21.80
2009,07,10,14,08,21.80
2009,07,10,14,09,21.80
2009,07,10,14,10,21.80
2009,07,10,14,11,21.80
2009,07,10,14,12,21.80
2009,07,10,14,13,21.80
2009,07,10,14,14,21.90
2009,07,10,14,15,21.90
2009,07,10,14,16,21.90
2009,07,10,14,17,21.90
2009,07,10,14,18,21.90
2009,07,10,14,19,21.90
2009,07,10,14,20,22.00
2009,07,10,14,21,22.10
2009,07,10,14,22,22.10
2009,07,10,14,23,22.10
2009,07,10,14,24,22.10
2009,07,10,14,25,22.10
2009,07,10,14,26,22.10
2009,07,10,14,27,22.10
2009,07,10,14,28,22.10
2009,07,10,14,29,22.10
2009,07,10,14,30,22.10
2009,07,10,14,31,22.10
2009,07,10,14,32,22.20
2009,07,10,14,33,22.30
2009,07,10,14,34,22.30
2009,07,10,14,35,22.40
2009,07,10,14,36,22.40
2009,07,10,14,37,22.40
2009,07,10,14,38,22.50
2009,07,10,14,39,22.50
2009,07,10,14,40,22.50
2009,07,10,14,41,22.50
2009,07,10,14,42,22.50
2009,07,10,14,43,22.50
2009,07,10,14,44,22.60
2009,07,10,14,45,22.50
2009,07,10,14,46,22.50
2009,07,10,14,47,22.50
2009,07,10,14,48,22.50
2009,07,10,14,49,22.50
2009,07,10,14,50,22.50
2009,07,10,14,51,22.50
2009,07,10,14,52,22.50
2009,07,10,14,53,22.50
2009,07,10,14,54,22.50
2009,07,10,14,55,22.40
2009,07,10,14,56,22.30
2009,07,10,14,57,22.30
2009,07,10,14,58,22.30
2009,07,10,14,59,22.30
2009,07,10,15,00,22.30
2009,07,10,15,01,22.30
2009,07,10,15,02,22.20
2009,07,10,15,03,22.10
2009,07,10,15,04,22.10
2009,07,10,15,05,22.00
2009,07,10,15,06,22.00
2009,07,10,15,07,22.00
2009,07,10,15,08,22.00
2009,07,10,15,09,22.10
2009,07,10,15,10,22.10
2009,07,10,15,11,22.10
2009,07,10,15,12,22.20
2009,07,10,15,13,22.30
2009,07,10,15,14,22.30
2009,07,10,15,15,22.40
2009,07,10,15,16,22.50
2009,07,10,15,17,22.60
2009,07,10,15,18,22.60
2009,07,10,15,19,22.70
2009,07,10,15,20,22.70
2009,07,10,15,21,22.60
2009,07,10,15,22,22.50
2009,07,10,15,23,22.50
2009,07,10,15,24,22.40
2009,07,10,15,25,22.40
2009,07,10,15,26,22.30
2009,07,10,15,27,22.40
2009,07,10,15,28,22.40
2009,07,10,15,29,22.40
2009,07,10,15,30,22.40
2009,07,10,15,31,22.40
2009,07,10,15,32,22.40
2009,07,10,15,33,22.40
2009,07,10,15,34,22.40
2009,07,10,15,35,22.40
2009,07,10,15,36,22.40
2009,07,10,15,37,22.40
2009,07,10,15,38,22.40
2009,07,10,15,39,22.40
2009,07,10,15,40,22.40
2009,07,10,15,41,22.60
2009,07,10,15,42,22.70
2009,07,10,15,43,22.80
2009,07,10,15,44,22.80
2009,07,10,15,45,22.80
2009,07,10,15,46,22.80
2009,07,10,15,47,22.80
2009,07,10,15,48,22.90
2009,07,10,15,49,23.00
2009,07,10,15,50,23.00
2009,07,10,15,51,23.00
2009,07,10,15,52,22.90
2009,07,10,15,53,22.90
2009,07,10,15,54,22.90
2009,07,10,15,55,22.90
2009,07,10,15,56,22.80
2009,07,10,15,57,22.90
2009,07,10,15,58,22.90
2009,07,10,15,59,22.80
2009,07,10,16,00,22.80
2009,07,10,16,01,22.80
2009,07,10,16,02,22.90
2009,07,10,16,03,22.90
2009,07,10,16,04,22.90
2009,07,10,16,05,22.80
2009,07,10,16,06,22.80
2009,07,10,16,07,22.70
2009,07,10,16,08,22.70
2009,07,10,16,09,22.80
2009,07,10,16,10,22.80
2009,07,10,16,11,22.80
2009,07,10,16,12,22.80
2009,07,10,16,13,22.70
2009,07,10,16,14,22.70
2009,07,10,16,15,22.70
2009,07,10,16,16,22.70
2009,07,10,16,17,22.60
2009,07,10,16,18,22.60
2009,07,10,16,19,22.60
2009,07,10,16,20,22.60
2009,07,10,16,21,22.70
2009,07,10,16,22,22.70
2009,07,10,16,23,22.70
2009,07,10,16,24,22.70
2009,07,10,16,25,22.70
2009,07,10,16,26,22.80
2009,07,10,16,27,22.90
2009,07,10,16,28,22.90
2009,07,10,16,29,22.90
2009,07,10,16,30,22.90
2009,07,10,16,31,22.90
2009,07,10,16,32,22.90
2009,07,10,16,33,22.90
2009,07,10,16,34,22.90
2009,07,10,16,35,22.90
2009,07,10,16,36,22.90
2009,07,10,16,37,22.90
2009,07,10,16,38,23.00
2009,07,10,16,39,23.00
2009,07,10,16,40,23.00
2009,07,10,16,41,23.00
2009,07,10,16,42,22.90
2009,07,10,16,43,22.90
2009,07,10,16,44,22.80
2009,07,10,16,45,22.80
2009,07,10,16,46,22.80
2009,07,10,16,47,22.80
2009,07,10,16,48,22.80
2009,07,10,16,49,22.70
2009,07,10,16,50,22.70
2009,07,10,16,51,22.70
2009,07,10,16,52,22.70
2009,07,10,16,53,22.70
2009,07,10,16,54,22.60
2009,07,10,16,55,22.70
2009,07,10,16,56,22.70
2009,07,10,16,57,22.70
2009,07,10,16,58,22.70
2009,07,10,16,59,22.70
2009,07,10,17,00,22.70
2009,07,10,17,01,22.70
2009,07,10,17,02,22.60
2009,07,10,17,03,22.60
2009,07,10,17,04,22.60
2009,07,10,17,05,22.60
2009,07,10,17,06,22.60
2009,07,10,17,07,22.60
2009,07,10,17,08,22.70
2009,07,10,17,09,22.70
2009,07,10,17,10,22.80
2009,07,10,17,11,22.80
2009,07,10,17,12,22.80
2009,07,10,17,13,22.90
2009,07,10,17,14,23.00
2009,07,10,17,15,23.00
2009,07,10,17,16,23.10
2009,07,10,17,17,23.20
2009,07,10,17,18,23.20
2009,07,10,17,19,23.20